Regional Weather Roundup
Issued by NWS

Home | Current Version | Previous Version | Graphics & Text | Print | Product List | Glossary On
Versions: 1 2 3 4 5 6 7 8 9 10 11 12 13 14 15 16 17 18 19 20 21 22 23 24 25 26 27 28 29 30 31 32 33 34 35 36 37 38 39 40 41 42 43 44 45 46 47 48 49 50
000
ASUS45 KABQ 261310
RWRNM
NEW MEXICO REGIONAL WEATHER ROUNDUP
NATIONAL WEATHER SERVICE ALBUQUERQUE NM
700 AM MDT THU MAY 26 2016

NOTE: "FAIR" MEANS FEW OR NO CLOUDS BELOW 12,000 FEET AGL WITH NO
       SIGNIFICANT WEATHER OR OBSTRUCTIONS TO VISION.

      THIS PRODUCT IS RELEASED AS TWO VERSIONS.  ONE VERSION NEAR
      THE TOP OF THE HOUR CONTAINING PRELIMINARY DATA FROM ALBUQUERQUE
      AND OTHER STATIONS.  A FINAL VERSION WITH ADDITIONAL DATA IS
      ISSUED ABOUT 10 MINUTES AFTER THE HOUR.

NMZ501-503-504-510>518-261400-
NORTHWEST PLATEAU/NORTHCENTRAL MOUNTAINS

CITY           SKY/WX    TMP DP  RH WIND       PRES   REMARKS
FARMINGTON     CLOUDY    52  21  29 E9        29.97R
LOS ALAMOS     PTSUNNY   53  20  28 CALM      30.04S
SANTA FE       FAIR      50  22  33 CALM      30.00R
TAOS           FAIR      43  21  42 CALM      30.04S
ANGEL FIRE     FAIR      31  25  76 CALM      30.11S

$$
NMZ402-403-502-505>509-261400-
WESTCENTRAL MOUNTAINS/SOUTHWEST MOUNTAINS

CITY           SKY/WX    TMP DP  RH WIND       PRES   REMARKS
GALLUP         FAIR      46  17  31 S10       30.03S
GRANTS         FAIR      41  18  39 CALM      30.06S
SILVER CITY      N/A     48  19  32 N8        30.06R

$$
NMZ407-409-411-412-261400-
SOUTHERN DESERTS

CITY           SKY/WX    TMP DP  RH WIND       PRES   REMARKS
LORDSBURG      FAIR      55  23  28 N3        30.02R
DEMING         FAIR      56  25  30 W7        30.02R
LAS CRUCES     FAIR      60  23  24 W9        30.02R
HOLLOMAN AFB   FAIR      64  22  19 S6        29.98R
ALAMOGORDO     FAIR      57  25  28 S7        29.99R
T OR C         FAIR      59  21  23 W5        29.98R

$$
NMZ519>523-261400-
CENTRAL VALLEYS/CENTRAL HIGHLANDS

CITY           SKY/WX    TMP DP  RH WIND       PRES   REMARKS
ALBUQUERQUE    FAIR      54  17  23 SE3       29.99R
DOUBLE EAGLE   MOSUNNY   46  19  34 W7        30.01R
MORIARTY ARPT  FAIR      43  19  38 CALM      30.02S
CLINES CORNERS FAIR      50  18  28 W10       30.01F
BELEN          FAIR      52  19  27 CALM      29.99R
SOCORRO        FAIR      53  23  31 CALM      29.98R

$$
NMZ524>526-539-540-261400-
SOUTHCENTRAL MOUNTAINS

CITY           SKY/WX    TMP DP  RH WIND       PRES   REMARKS
RUIDOSO          N/A     55  18  22 SW8       30.08S

$$
NMZ527>531-261400-
NORTHEAST HIGHLANDS/NORTHEAST PLAINS

CITY           SKY/WX    TMP DP  RH WIND       PRES   REMARKS
LAS VEGAS      FAIR      45  25  45 E9        30.01R
RATON          FAIR      43  27  53 NE8       29.97R
CLAYTON        FAIR      62  26  25 NW9       29.90S

$$
NMZ532>537-261400-
EASTCENTRAL PLAINS

CITY           SKY/WX    TMP DP  RH WIND       PRES   REMARKS
TUCUMCARI      FAIR      64  26  23 W12       29.87S
CANNON AFB     FAIR      61  42  50 W12       29.91F
CLOVIS AIRPORT FAIR      61  45  55 W12       29.91S

$$
NMZ028-029-538-261400-
SOUTHEAST PLAINS

CITY           SKY/WX    TMP DP  RH WIND       PRES   REMARKS
ROSWELL        FAIR      66  23  19 W6        29.91R
ARTESIA        FAIR      64  21  19 CALM      29.91R
CARLSBAD       FAIR      74  24  15 W13       29.89S
HOBBS          SUNNY     66  48  52 S5        29.93S


$$




USA.gov is the U.S. government's official web portal to all federal, state and local government web resources and services.